This is the latest recevied weather packets stored in our database for station/object HB9SZU-6. If no packets are shown the sender has not sent any weather packets the latest 10 day(s).
| Time | Temp. | Humidity | Pressure | Rain* | Wind** | Luminosity | Snow |
|---|---|---|---|---|---|---|---|
| 1777912390 | 21.11° C | 42% | 1020.3 hPa | 0 mm | - | - | - |
| 1777911490 | 21.11° C | 42% | 1020.3 hPa | 0 mm | - | - | - |
| 1777910591 | 21.67° C | 41% | 1020.5 hPa | 0 mm | - | - | - |
| 1777909690 | 21.67° C | 41% | 1020.6 hPa | 0 mm | - | - | - |
| 1777908790 | 22.22° C | 39% | 1020.6 hPa | 0 mm | - | - | - |
| 1777907890 | 22.22° C | 38% | 1020.6 hPa | 0 mm | - | - | - |
| 1777906990 | 22.22° C | 39% | 1020.9 hPa | 0 mm | - | - | - |
| 1777906091 | 22.22° C | 39% | 1020.8 hPa | 0 mm | - | - | - |
| 1777905190 | 22.22° C | 41% | 1021 hPa | 0 mm | - | - | - |
| 1777904290 | 22.22° C | 41% | 1021.2 hPa | 0 mm | - | - | - |
| 1777903391 | 22.22° C | 41% | 1021.4 hPa | 0 mm | - | - | - |
| 1777902490 | 22.22° C | 39% | 1021.6 hPa | 0 mm | - | - | - |
| 1777901590 | 22.22° C | 41% | 1021.8 hPa | 0 mm | - | - | - |
| 1777899791 | 21.67° C | 43% | 1022.1 hPa | 0 mm | - | - | - |
| 1777898890 | 21.67° C | 44% | 1022.1 hPa | 0 mm | - | - | - |
| 1777897990 | 21.11° C | 45% | 1022.2 hPa | 0 mm | - | - | - |
| 1777897091 | 21.11° C | 45% | 1022.2 hPa | 0 mm | - | - | - |
| 1777896190 | 21.11° C | 44% | 1022.2 hPa | 0 mm | - | - | - |
| 1777895290 | 21.11° C | 46% | 1022.1 hPa | 0 mm | - | - | - |
| 1777894390 | 20.56° C | 46% | 1022.1 hPa | 0 mm | - | - | - |
| 1777893491 | 20.56° C | 45% | 1022.1 hPa | 0 mm | - | - | - |
| 1777892590 | 20.56° C | 46% | 1022.3 hPa | 0 mm | - | - | - |
| 1777891690 | 20.56° C | 47% | 1022.7 hPa | 0 mm | - | - | - |
| 1777890791 | 20.56° C | 48% | 1022.5 hPa | 0 mm | - | - | - |
| 1777889891 | 20.56° C | 48% | 1022.9 hPa | 0 mm | - | - | - |
* Rain latest hour (hover to see other rain measurements)
** Current wind speed in m/s (hover to see current wind gust speed)